Strona główna
METAR-TAF:

METAR-TAF

Lotnisko :

Ortonville Municipal Airport (Martinson Field)

Ortonville, Minnesota, Stany Zjednoczone

Szerokość geograficzna: 45-18-20N, Długość geograficzna: 096-25-28W, wysokość: 335 m

Aktualna obserwacja pogody

Raport powstał 17 minut temu, godzina 06:35 UTC
Wiatr 7 kt od północno-północny zachód
Temperatura -12°C
Wilgotność 85%
Ciśnienie 1031 hPa
Widzialność: 16.1 km
bezchmurnie

METAR: KVVV 260635Z AUTO 33007KT 10SM CLR M12/M14 A3045 RMK AO2

czas: 00:52 (06:52 UTC)


TAF: brakujący

Obserwacja i prognoza pogody dla ponad 4000 lotnisk (raport METAR i TAF).

Dostępne stacje oznaczono żółtymi i czerwonymi punktami na mapie.

Najedź kursorem aby zobaczyć nazwę stacji.

Kliknij aby zobaczyć obserwacje i prognozy pogody.

Aby zmienić mapę: kliknij na zielony przycisk z czarnym krzyżykiem, aby powiększyć; na zielony przycisk z myślnikiem, aby pomniejszyć; na zielone strzałki, aby przejść do map sąsiednich.


METAR-TAF: